[[{"header":{"parameterUnit":"m.s-1","parameterCategory":1,"la1":30.2991,"la2":30.254,"lo1":-89.0895,"lo2":-89.0444,"dy":0.0017,"dx":0.0017,"nx":28,"ny":28,"refTime":"2025-03-18T21:00:00:Z","depth":0,"parameterNumber":2,"parameterNumberName":"U-component_of_WINDS"},"data":[0,0,0,0,0,0,0,0,0,0,0,0,0,0,0,0,0,0,0,0,0,0,0,0,0,0,0,0,0,0,0,0,0,0,0,0,0,0,0,0,0,0,0,0,0,0,0,0,0,0,0,0,0,0,0,0,0,0,-0.5287,-0.5286,0,-0.5231,-0.523,-0.5229,-0.5199,-0.5199,-0.5199,-0.5199,-0.5143,-0.5142,-0.5141,0,0,0,0,0,0,0,0,0,0,0,0,0,-0.5371,-0.537,-0.5287,-0.5286,-0.5286,-0.5231,-0.523,-0.5229,-0.5199,-0.5199,-0.5199,-0.5199,-0.5144,-0.5142,-0.5141,0,0,0,0,0,0,0,0,0,0,0,0,0,-0.5327,-0.5369,-0.5287,-0.5264,-0.5261,-0.5231,-0.523,-0.5229,-0.5199,-0.5199,-0.5199,-0.5199,-0.5144,-0.5142,-0.514,-0.513,0,0,-0.5134,-0.5133,0,0,0,0,0,0,0,0,-0.5329,-0.5324,-0.5268,-0.5265,-0.5262,-0.5222,-0.5239,-0.5196,-0.5199,-0.5223,-0.5199,-0.5198,-0.517,-0.5166,-0.5155,-0.5127,-0.5125,-0.5134,-0.5133,-0.5132,-0.5131,0,0,0,0,0,0,0,-0.5333,-0.5326,-0.5265,-0.5267,-0.5264,-0.5257,-0.5251,-0.5231,-0.5198,-0.5221,-0.5218,-0.5212,-0.5168,-0.5157,-0.5154,-0.5124,-0.5134,-0.5132,-0.5131,-0.513,-0.5086,-0.5086,0,0,0,0,0,0,-0.5339,-0.5329,-0.5267,-0.5263,-0.5296,-0.5256,-0.5248,-0.5235,-0.5198,-0.5192,-0.5212,-0.5211,-0.5161,-0.5156,-0.5152,-0.5137,-0.5132,-0.513,-0.5128,-0.5085,-0.5086,-0.5086,0,0,0,0,0,0,-0.5341,-0.5334,-0.5269,-0.5295,-0.5287,-0.5254,-0.5239,-0.5234,-0.5223,-0.5191,-0.5185,-0.5207,-0.5161,-0.5155,-0.5136,-0.5135,-0.5129,-0.5127,-0.5085,-0.5085,-0.5086,-0.5108,0,0,0,0,0,0,-0.5343,-0.5335,-0.533,-0.5295,-0.5285,-0.5253,-0.5239,-0.5233,-0.5219,-0.5217,-0.5185,-0.518,-0.516,-0.5139,-0.5133,-0.5132,-0.5125,-0.5085,-0.5085,-0.5086,-0.5107,-0.5109,-0.5111,0,0,0,0,0,-0.5347,-0.5339,-0.5329,-0.5322,-0.5278,-0.5253,-0.5247,-0.5224,-0.5219,-0.5214,-0.5194,-0.5181,-0.5136,-0.5137,-0.5131,-0.5129,-0.5085,-0.5085,-0.5086,-0.5107,-0.5109,-0.5111,0,0,0,0,0,0,-0.5374,-0.5334,-0.5323,-0.5304,-0.5282,-0.5248,-0.5241,-0.5227,-0.5207,-0.5206,-0.5179,-0.5172,-0.5156,-0.514,-0.5142,-0.5117,-0.5109,-0.5108,-0.5128,-0.5129,-0.5131,-0.5135,-0.5123,0,0,0,0,0,-0.5378,-0.536,-0.5326,-0.5312,-0.5302,-0.5273,-0.5261,-0.5246,-0.5222,-0.5213,-0.5191,-0.517,-0.5151,-0.5139,-0.512,-0.5105,-0.5098,-0.5101,-0.5102,-0.5104,-0.5103,-0.5095,-0.5096,-0.5086,-0.5086,-0.5086,0,0,-0.5386,-0.5362,-0.5352,-0.5317,-0.5298,-0.5281,-0.5266,-0.5248,-0.5235,-0.5211,-0.5191,-0.5175,-0.5149,-0.5132,-0.5123,-0.5119,-0.5104,-0.5104,-0.5106,-0.5104,-0.5095,-0.5096,-0.5097,-0.5086,-0.5086,-0.5086,0,0,-0.5391,-0.5371,-0.5357,-0.5339,-0.531,-0.5291,-0.5288,-0.5256,-0.5244,-0.5224,-0.5205,-0.519,-0.5158,-0.5141,-0.5128,-0.5127,-0.5114,-0.5122,-0.513,-0.5122,-0.5123,-0.5124,-0.5124,-0.5124,-0.5122,-0.5122,-0.5122,0,-0.5405,-0.5377,-0.5352,-0.5335,-0.5321,-0.5297,-0.5284,-0.5268,-0.5235,-0.5226,-0.5221,-0.5181,-0.5162,-0.5141,-0.514,-0.5131,-0.5127,-0.5125,-0.5125,-0.5125,-0.5125,-0.5125,-0.5125,-0.5123,-0.5123,-0.5122,-0.5122,0,-0.5395,-0.5377,-0.5369,-0.5337,-0.5322,-0.5307,-0.5281,-0.5269,-0.5255,-0.5237,-0.5217,-0.5194,-0.517,-0.5164,-0.515,-0.5141,-0.5139,-0.513,-0.5121,-0.5128,-0.5127,-0.5127,-0.5124,-0.5124,-0.5124,-0.5123,0,0,-0.5416,-0.5371,-0.5368,-0.5354,-0.5321,-0.5306,-0.5291,-0.5267,-0.5257,-0.5236,-0.5223,-0.5196,-0.5188,-0.5173,-0.5158,-0.515,-0.5152,-0.5142,-0.5141,-0.5145,-0.5141,-0.5148,-0.5148,-0.5143,-0.5143,-0.5143,-0.5143,0,-0.5417,-0.5387,-0.5364,-0.5343,-0.5326,-0.5304,-0.529,-0.5269,-0.5253,-0.5236,-0.5218,-0.52,-0.519,-0.5181,-0.5173,-0.5154,-0.5151,-0.5153,-0.5132,-0.5131,-0.5139,-0.5148,-0.5155,-0.5156,-0.5143,-0.5143,-0.5143,0,-0.5414,-0.5392,-0.5369,-0.5338,-0.533,-0.5318,-0.5295,-0.5279,-0.5255,-0.5244,-0.5228,-0.5211,-0.5195,-0.5189,-0.5166,-0.5168,-0.5158,-0.5148,-0.5147,-0.5144,-0.5137,-0.5146,-0.5156,-0.5157,-0.5142,-0.5142,-0.5142,0,-0.5432,-0.5397,-0.5379,-0.5367,-0.533,-0.5323,-0.5308,-0.5283,-0.527,-0.525,-0.5242,-0.522,-0.5208,-0.5193,-0.5171,-0.5168,-0.5152,-0.5143,-0.5142,-0.5143,-0.5139,-0.514,-0.5149,-0.5133,-0.5133,-0.5133,-0.5133,0,-0.5435,-0.5422,-0.5386,-0.5375,-0.536,-0.5335,-0.5321,-0.5304,-0.5283,-0.5269,-0.5249,-0.5236,-0.5209,-0.5193,-0.5177,-0.5161,-0.5156,-0.5147,-0.5143,-0.5149,-0.515,-0.5142,-0.5141,-0.5133,-0.5133,-0.5133,-0.5133,0,-0.5452,-0.5428,-0.5406,-0.5374,-0.5365,-0.5356,-0.5328,-0.5317,-0.5299,-0.5282,-0.5276,-0.5248,-0.5229,-0.5206,-0.518,-0.5169,-0.5155,-0.5149,-0.5163,-0.516,-0.5161,-0.5161,-0.5165,-0.5164,-0.5149,-0.5149,-0.5149,0,-0.5456,-0.5445,-0.5411,-0.54,-0.5385,-0.5367,-0.5353,-0.5328,-0.5315,-0.5288,-0.528,-0.5259,-0.5241,-0.5212,-0.519,-0.517,-0.5163,-0.5165,-0.516,-0.5166,-0.5163,-0.5164,-0.5163,-0.5167,-0.5167,-0.5168,-0.5168,0,-0.5465,-0.5453,-0.5434,-0.5411,-0.5395,-0.5376,-0.5356,-0.5348,-0.5319,-0.5306,-0.5285,-0.5271,-0.5244,-0.5224,-0.5201,-0.5187,-0.5173,-0.517,-0.5168,-0.5175,-0.5183,-0.5179,-0.5167,-0.517,-0.517,-0.5169,-0.5169,-0.5169,-0.5476,-0.5465,-0.544,-0.5419,-0.5401,-0.5383,-0.5371,-0.5351,-0.5334,-0.5309,-0.5296,-0.5276,-0.5253,-0.5221,-0.5207,-0.5192,-0.5187,-0.5185,-0.5184,-0.5184,-0.5186,-0.5186,-0.5187,-0.5187,-0.5187,-0.5187,-0.5187,0,-0.5484,-0.5466,-0.5448,-0.542,-0.5404,-0.5391,-0.5369,-0.5357,-0.5339,-0.5318,-0.5301,-0.5278,-0.5258,-0.5235,-0.5214,-0.5207,-0.52,-0.5202,-0.5203,-0.5199,-0.5192,-0.5195,-0.5208,-0.5208,-0.5208,-0.5208,-0.5208,-0.5208,-0.5487,-0.5468,-0.5454,-0.5427,-0.541,-0.5389,-0.5377,-0.5361,-0.5344,-0.5319,-0.5303,-0.5287,-0.5266,-0.5243,-0.5225,-0.5219,-0.5212,-0.5217,-0.5209,-0.5202,-0.52,-0.5198,-0.5201,-0.5215,-0.5215,-0.5218,-0.5218,-0.5218]},{"header":{"parameterUnit":"m.s-1","parameterCategory":1,"la1":30.2991,"la2":30.254,"lo1":-89.0895,"lo2":-89.0444,"dy":0.0017,"dx":0.0017,"nx":28,"ny":28,"refTime":"2025-03-18T21:00:00:Z","depth":0,"parameterNumber":3,"parameterNumberName":"V-component_of_WINDS"},"data":[0,0,0,0,0,0,0,0,0,0,0,0,0,0,0,0,0,0,0,0,0,0,0,0,0,0,0,0,0,0,0,0,0,0,0,0,0,0,0,0,0,0,0,0,0,0,0,0,0,0,0,0,0,0,0,0,0,0,5.0466,5.0467,0,5.0558,5.0559,5.056,5.0532,5.053,5.0528,5.0527,5.0615,5.0619,5.0623,0,0,0,0,0,0,0,0,0,0,0,0,0,5.0262,5.0265,5.0466,5.0467,5.0468,5.0558,5.0559,5.056,5.0533,5.053,5.0528,5.0526,5.0614,5.0619,5.0624,0,0,0,0,0,0,0,0,0,0,0,0,0,5.0351,5.0267,5.0466,5.0465,5.0466,5.0558,5.0559,5.0561,5.0533,5.053,5.0527,5.0525,5.0612,5.0618,5.0625,5.072,0,0,5.0644,5.0646,0,0,0,0,0,0,0,0,5.0346,5.0359,5.0464,5.0466,5.0467,5.0531,5.052,5.0614,5.0534,5.0508,5.0527,5.0523,5.0589,5.0597,5.062,5.0724,5.0728,5.0644,5.0648,5.0651,5.0652,0,0,0,0,0,0,0,5.034,5.0355,5.0502,5.0466,5.0467,5.0459,5.0469,5.0537,5.0563,5.051,5.0508,5.0519,5.0589,5.0615,5.0622,5.0729,5.0644,5.0649,5.0653,5.0656,5.0917,5.092,0,0,0,0,0,0,5.0334,5.035,5.0499,5.0505,5.0398,5.0465,5.0476,5.0513,5.0562,5.0567,5.0522,5.0518,5.0605,5.0615,5.0625,5.0741,5.065,5.0656,5.066,5.0914,5.0918,5.0921,0,0,0,0,0,0,5.033,5.0347,5.0496,5.0427,5.0445,5.0472,5.0514,5.0516,5.0542,5.0572,5.0575,5.0543,5.0603,5.0617,5.0697,5.0744,5.0659,5.0665,5.091,5.0915,5.0919,5.0973,0,0,0,0,0,0,5.0324,5.0346,5.0384,5.0428,5.0449,5.0568,5.0517,5.052,5.0553,5.0549,5.0593,5.0597,5.0602,5.0688,5.0704,5.0751,5.067,5.0906,5.0912,5.0918,5.0967,5.0979,5.0989,0,0,0,0,0,5.0317,5.0394,5.0386,5.0404,5.0497,5.057,5.0582,5.0588,5.0557,5.0594,5.0614,5.0596,5.0736,5.0697,5.0714,5.0763,5.0903,5.091,5.0917,5.0962,5.0976,5.0989,0,0,0,0,0,0,5.0352,5.0399,5.0391,5.0485,5.0524,5.0565,5.0613,5.0603,5.065,5.0643,5.0647,5.0657,5.074,5.076,5.0715,5.0859,5.0815,5.0826,5.0843,5.0857,5.0868,5.0861,5.0675,0,0,0,0,0,5.0371,5.0428,5.0466,5.0545,5.0566,5.0586,5.0618,5.062,5.0659,5.0675,5.07,5.0738,5.079,5.0825,5.0875,5.097,5.0979,5.1012,5.1023,5.1032,5.1041,5.1093,5.1109,5.0945,5.0945,5.0945,0,0,5.041,5.0443,5.0479,5.0553,5.0584,5.0641,5.06,5.0662,5.0705,5.0684,5.0762,5.0782,5.0824,5.0913,5.0953,5.0932,5.1089,5.1041,5.1048,5.1053,5.1102,5.1118,5.1131,5.095,5.0949,5.0948,0,0,5.0511,5.0542,5.0612,5.0644,5.0691,5.0705,5.0722,5.0765,5.0778,5.0857,5.0843,5.0892,5.0983,5.1014,5.1041,5.1156,5.1141,5.1172,5.1229,5.128,5.1293,5.1304,5.1345,5.1359,5.1181,5.1181,5.1182,0,5.0553,5.0642,5.0649,5.0714,5.0746,5.0732,5.0802,5.0832,5.0893,5.0915,5.0891,5.1005,5.1033,5.1128,5.1157,5.1179,5.1198,5.1167,5.1291,5.1302,5.1313,5.1352,5.1367,5.1185,5.1184,5.1184,5.1184,0,5.0691,5.0752,5.0803,5.0864,5.0903,5.097,5.0986,5.1024,5.1022,5.1038,5.1119,5.1151,5.1208,5.1231,5.1229,5.1327,5.1312,5.1289,5.1245,5.1332,5.1368,5.1383,5.119,5.1189,5.1188,5.1187,0,0,5.0815,5.0881,5.09,5.0928,5.0979,5.1026,5.1092,5.115,5.1182,5.1225,5.128,5.1358,5.1337,5.1369,5.137,5.1415,5.1503,5.1386,5.1387,5.1407,5.1613,5.1629,5.1647,5.1494,5.1497,5.1499,5.1609,0,5.092,5.1039,5.1048,5.1154,5.1211,5.1199,5.1256,5.1294,5.131,5.1359,5.1377,5.1432,5.1401,5.142,5.1464,5.1483,5.1545,5.1476,5.1544,5.1546,5.1534,5.1666,5.1683,5.1785,5.1624,5.1626,5.1628,0,5.1059,5.1108,5.1221,5.1266,5.129,5.1341,5.1395,5.1443,5.1485,5.1494,5.153,5.1526,5.1592,5.1547,5.1638,5.1591,5.162,5.1634,5.1638,5.1643,5.1592,5.1675,5.1818,5.1833,5.165,5.1648,5.1647,0,5.1138,5.1232,5.1312,5.1336,5.1391,5.1427,5.1451,5.1491,5.1525,5.1572,5.1594,5.1647,5.1676,5.1716,5.1726,5.1692,5.1817,5.1772,5.1826,5.1825,5.1852,5.185,5.2001,5.1871,5.1871,5.1871,5.187,0,5.1254,5.1324,5.1349,5.1398,5.1475,5.1484,5.1559,5.1581,5.1616,5.1668,5.166,5.1709,5.1719,5.1769,5.1777,5.1852,5.1865,5.1873,5.1874,5.1874,5.1872,5.1892,5.1885,5.1875,5.1874,5.1873,5.1872,0,5.1356,5.1375,5.1461,5.1507,5.152,5.1575,5.1612,5.1659,5.1675,5.1741,5.1757,5.1782,5.1841,5.1855,5.1924,5.193,5.2018,5.2012,5.2004,5.2004,5.2056,5.2051,5.2224,5.2247,5.2103,5.2104,5.2106,0,5.1428,5.1482,5.1534,5.1569,5.1595,5.1652,5.1688,5.1699,5.1736,5.1789,5.1829,5.1887,5.1935,5.2029,5.2052,5.2105,5.2101,5.2158,5.2108,5.2107,5.2101,5.2098,5.2103,5.2167,5.2169,5.217,5.2171,0,5.1555,5.1563,5.1616,5.1673,5.1716,5.1761,5.1803,5.1832,5.1849,5.1891,5.1953,5.199,5.2062,5.212,5.2174,5.2196,5.2186,5.2187,5.2202,5.2201,5.2194,5.2199,5.203,5.2182,5.2181,5.218,5.218,5.2179,5.1644,5.1691,5.1736,5.1795,5.1829,5.1869,5.1915,5.1939,5.1991,5.2052,5.2055,5.2122,5.2162,5.2234,5.226,5.2312,5.2294,5.2316,5.2321,5.2326,5.2331,5.2187,5.2321,5.2321,5.2321,5.232,5.232,0,5.177,5.1799,5.1853,5.1915,5.1961,5.195,5.1997,5.2036,5.2096,5.2136,5.2183,5.2254,5.231,5.2339,5.2394,5.243,5.2427,5.2444,5.2441,5.2447,5.2344,5.2325,5.2446,5.2446,5.2446,5.2446,5.2446,5.2446,5.1841,5.1921,5.1934,5.203,5.2057,5.2124,5.2152,5.2189,5.2221,5.2301,5.2349,5.2368,5.2403,5.2461,5.2512,5.2519,5.254,5.256,5.2564,5.2467,5.2454,5.2442,5.2424,5.2564,5.2564,5.2663,5.2664,5.2664]}]]